TimeCDT,TemperatureF,Dew PointF,Humidity,Sea Level PressureIn,VisibilityMPH,Wind Direction,Wind SpeedMPH,Gust SpeedMPH,PrecipitationIn,Events,Conditions,WindDirDegrees,DateUTC
12:56 AM,75.0,73.0,94,29.93,10.0,Calm,Calm,-,N/A,,Clear,0,2013-06-14 05:56:00
1:56 AM,79.0,73.9,84,29.91,10.0,Calm,Calm,-,N/A,,Clear,0,2013-06-14 06:56:00
2:56 AM,75.9,73.9,94,29.92,10.0,Calm,Calm,-,N/A,,Clear,0,2013-06-14 07:56:00
3:56 AM,73.9,73.0,97,29.90,10.0,Calm,Calm,-,N/A,,Clear,0,2013-06-14 08:56:00
4:56 AM,73.9,73.0,97,29.93,8.0,Calm,Calm,-,N/A,,Clear,0,2013-06-14 09:56:00
5:56 AM,75.9,73.9,94,29.93,10.0,WSW,3.5,-,N/A,,Clear,250,2013-06-14 10:56:00
6:56 AM,78.1,75.0,90,29.94,10.0,Calm,Calm,-,N/A,,Clear,0,2013-06-14 11:56:00
7:56 AM,81.0,75.9,85,29.95,10.0,Variable,3.5,-,N/A,,Clear,0,2013-06-14 12:56:00
8:56 AM,84.0,75.9,76,29.96,10.0,North,4.6,-,N/A,,Clear,10,2013-06-14 13:56:00
9:56 AM,87.1,75.9,69,29.95,10.0,Calm,Calm,-,N/A,,Clear,0,2013-06-14 14:56:00
10:56 AM,91.0,75.0,59,29.95,10.0,North,8.1,-,N/A,,Partly Cloudy,360,2013-06-14 15:56:00
11:56 AM,91.9,75.9,59,29.95,10.0,Variable,3.5,-,N/A,,Scattered Clouds,0,2013-06-14 16:56:00
12:56 PM,93.9,73.9,52,29.94,10.0,North,6.9,-,N/A,,Clear,10,2013-06-14 17:56:00
1:56 PM,93.9,73.0,51,29.92,10.0,Calm,Calm,-,N/A,,Scattered Clouds,0,2013-06-14 18:56:00
2:56 PM,96.1,75.0,51,29.90,10.0,Variable,4.6,-,N/A,,Scattered Clouds,0,2013-06-14 19:56:00
3:56 PM,96.1,73.9,49,29.89,10.0,North,5.8,-,N/A,,Scattered Clouds,360,2013-06-14 20:56:00
4:56 PM,91.0,77.0,63,29.88,10.0,Calm,Calm,-,N/A,,Scattered Clouds,0,2013-06-14 21:56:00
5:56 PM,93.0,77.0,59,29.87,10.0,NNE,6.9,-,N/A,,Scattered Clouds,20,2013-06-14 22:56:00
6:56 PM,90.0,75.9,63,29.87,10.0,NE,6.9,-,N/A,,Clear,50,2013-06-14 23:56:00
7:56 PM,86.0,75.0,70,29.88,10.0,Calm,Calm,-,N/A,,Clear,0,2013-06-15 00:56:00
8:56 PM,84.0,75.0,74,29.91,10.0,Calm,Calm,-,N/A,,Clear,0,2013-06-15 01:56:00
9:56 PM,82.0,73.0,74,29.93,10.0,ENE,6.9,-,N/A,,Clear,60,2013-06-15 02:56:00
10:56 PM,80.1,68.0,67,29.98,10.0,Calm,Calm,-,N/A,,Clear,0,2013-06-15 03:56:00
11:56 PM,77.0,68.0,74,29.97,10.0,Calm,Calm,-,N/A,,Clear,0,2013-06-15 04:56:00